When you browse on this site, cookies collect data to enhance your experience and personalize the content and advertising you see.
Visit our Privacy Policy to learn more. By continuing to use the site, you agree to this use of cookies and data.
  • In Österreich
  • Länderverzeichnis
  • Für 7 Tage
  • Wassertemperatur
  • Wetterkarte
  • News
  • Widgets
  • user-avatar
    Anmelden

    Stündliche Wetter Granitnyy

    Heute, 20 November, Mittwoch

    Zeit Temperatur Niederschläge Wind Luftdruck Luftfeuchtigkeit
    00:00 -25°C° 0 mm 5 m/S 753 mmHg 85%
    01:00 -25°C° 0 mm 5 m/S 754 mmHg 86%
    02:00 -26°C° 0 mm 5 m/S 754 mmHg 86%
    03:00 -26°C° 0 mm 5 m/S 754 mmHg 86%
    04:00 -27°C° 0 mm 5 m/S 755 mmHg 86%
    05:00 -27°C° 0 mm 5 m/S 755 mmHg 86%
    06:00 -27°C° 0 mm 5 m/S 755 mmHg 86%
    07:00 -28°C° 0 mm 6 m/S 756 mmHg 87%
    08:00 -28°C° 0 mm 6 m/S 756 mmHg 86%
    09:00 -28°C° 0 mm 6 m/S 756 mmHg 86%
    10:00 -27°C° 0 mm 6 m/S 757 mmHg 85%
    11:00 -27°C° 0 mm 6 m/S 757 mmHg 85%
    12:00 -26°C° 0 mm 5 m/S 757 mmHg 84%
    13:00 -25°C° 0 mm 5 m/S 757 mmHg 83%
    14:00 -25°C° 0 mm 5 m/S 757 mmHg 84%
    15:00 -25°C° 0 mm 5 m/S 758 mmHg 85%
    16:00 -24°C° 0 mm 4 m/S 758 mmHg 86%
    17:00 -25°C° 0 mm 4 m/S 758 mmHg 87%
    18:00 -25°C° 0 mm 4 m/S 758 mmHg 88%
    19:00 -25°C° 0 mm 4 m/S 758 mmHg 89%
    20:00 -25°C° 0 mm 4 m/S 759 mmHg 90%
    21:00 -24°C° 0 mm 3 m/S 759 mmHg 90%
    22:00 -24°C° 0 mm 3 m/S 759 mmHg 91%
    23:00 -24°C° 0 mm 3 m/S 759 mmHg 91%

    Morgen, 21 November, Donnerstag

    Zeit Temperatur Niederschläge Wind Luftdruck Luftfeuchtigkeit
    00:00 -24°C° 0 mm 3 m/S 759 mmHg 92%
    01:00 -24°C° 0 mm 3 m/S 759 mmHg 93%
    02:00 -24°C° 0 mm 3 m/S 760 mmHg 93%
    03:00 -24°C° 0 mm 3 m/S 760 mmHg 93%
    04:00 -24°C° 0 mm 3 m/S 760 mmHg 93%
    05:00 -24°C° 0 mm 3 m/S 760 mmHg 92%
    06:00 -23°C° 0 mm 2 m/S 760 mmHg 92%
    07:00 -23°C° 0 mm 2 m/S 760 mmHg 92%
    08:00 -21°C° 0 mm 2 m/S 760 mmHg 89%
    09:00 -18°C° 0 mm 1 m/S 760 mmHg 86%
    10:00 -17°C° 0 mm 1 m/S 760 mmHg 83%
    11:00 -16°C° 0 mm 1 m/S 760 mmHg 81%
    12:00 -16°C° 0 mm 1 m/S 759 mmHg 79%
    13:00 -15°C° 0 mm 1 m/S 759 mmHg 77%
    14:00 -15°C° 0 mm 1 m/S 759 mmHg 80%
    15:00 -16°C° 0 mm 1 m/S 759 mmHg 82%
    16:00 -16°C° 0 mm 1 m/S 758 mmHg 85%
    17:00 -16°C° 0 mm 1 m/S 758 mmHg 84%
    18:00 -16°C° 0 mm 1 m/S 758 mmHg 84%
    19:00 -16°C° 0 mm 1 m/S 757 mmHg 83%
    20:00 -16°C° 0 mm 1 m/S 757 mmHg 84%
    21:00 -15°C° 0 mm 1 m/S 757 mmHg 85%
    22:00 -15°C° 0 mm 1 m/S 757 mmHg 86%
    23:00 -15°C° 0 mm 1 m/S 757 mmHg 86%

    übermorgen, 22 November, Freitag

    Zeit Temperatur Niederschläge Wind Luftdruck Luftfeuchtigkeit
    00:00 -15°C° 0 mm 1 m/S 757 mmHg 86%
    01:00 -15°C° 0 mm 1 m/S 756 mmHg 86%
    02:00 -14°C° 0 mm 1 m/S 756 mmHg 86%
    03:00 -16°C° 0 mm 2 m/S 756 mmHg 85%
    04:00 -16°C° 0 mm 2 m/S 755 mmHg 84%
    05:00 -16°C° 0 mm 2 m/S 755 mmHg 83%
    06:00 -16°C° 0 mm 2 m/S 755 mmHg 83%
    07:00 -16°C° 0 mm 2 m/S 754 mmHg 82%
    08:00 -15°C° 0 mm 2 m/S 754 mmHg 81%
    09:00 -14°C° 0 mm 2 m/S 754 mmHg 80%
    10:00 -13°C° 0 mm 2 m/S 755 mmHg 79%
    11:00 -13°C° 0 mm 2 m/S 754 mmHg 77%
    12:00 -10°C° 0 mm 1 m/S 754 mmHg 76%
    13:00 -9°C° 0 mm 1 m/S 754 mmHg 74%
    14:00 -10°C° 0 mm 1 m/S 753 mmHg 76%
    15:00 -11°C° 0 mm 1 m/S 753 mmHg 78%
    16:00 -11°C° 0 mm 1 m/S 753 mmHg 80%
    17:00 -12°C° 0 mm 1 m/S 753 mmHg 80%
    18:00 -12°C° 0 mm 1 m/S 753 mmHg 80%
    19:00 -12°C° 0 mm 1 m/S 753 mmHg 80%
    20:00 -13°C° 0 mm 1 m/S 753 mmHg 80%
    21:00 -13°C° 0 mm 1 m/S 753 mmHg 80%
    22:00 -13°C° 0 mm 1 m/S 753 mmHg 79%
    23:00 -13°C° 0 mm 1 m/S 753 mmHg 79%

    23 November, Samstag

    Zeit Temperatur Niederschläge Wind Luftdruck Luftfeuchtigkeit
    00:00 -13°C° 0 mm 1 m/S 753 mmHg 79%
    01:00 -13°C° 0 mm 1 m/S 753 mmHg 79%
    02:00 -13°C° 0 mm 1 m/S 753 mmHg 78%
    03:00 -13°C° 0 mm 1 m/S 752 mmHg 78%
    04:00 -13°C° 0 mm 0 m/S 752 mmHg 78%
    05:00 -13°C° 0 mm 1 m/S 752 mmHg 80%
    06:00 -12°C° 0 mm 1 m/S 752 mmHg 82%
    07:00 -12°C° 0 mm 1 m/S 752 mmHg 83%
    08:00 -12°C° 0 mm 1 m/S 752 mmHg 84%
    09:00 -11°C° 0 mm 1 m/S 752 mmHg 85%
    10:00 -10°C° 0 mm 0 m/S 752 mmHg 85%
    11:00 -9°C° 0 mm 0 m/S 752 mmHg 85%
    12:00 -9°C° 0 mm 1 m/S 752 mmHg 85%
    13:00 -8°C° 0 mm 1 m/S 751 mmHg 85%
    14:00 -9°C° 0 mm 1 m/S 751 mmHg 87%
    15:00 -9°C° 0 mm 1 m/S 751 mmHg 89%
    16:00 -10°C° 0 mm 1 m/S 750 mmHg 90%
    17:00 -10°C° 0 mm 1 m/S 750 mmHg 90%
    18:00 -12°C° 0 mm 2 m/S 750 mmHg 91%
    19:00 -12°C° 0 mm 2 m/S 750 mmHg 91%
    20:00 -12°C° 0 mm 2 m/S 750 mmHg 91%
    21:00 -12°C° 0 mm 2 m/S 749 mmHg 91%
    22:00 -12°C° 0 mm 2 m/S 749 mmHg 91%
    23:00 -12°C° 0 mm 2 m/S 749 mmHg 92%

    24 November, Sonntag

    Zeit Temperatur Niederschläge Wind Luftdruck Luftfeuchtigkeit
    00:00 -12°C° 0 mm 2 m/S 749 mmHg 92%
    01:00 -12°C° 0 mm 2 m/S 748 mmHg 92%
    02:00 -12°C° 0 mm 2 m/S 748 mmHg 92%
    03:00 -13°C° 0 mm 3 m/S 748 mmHg 92%
    04:00 -13°C° 0 mm 3 m/S 747 mmHg 93%
    05:00 -13°C° 0 mm 3 m/S 747 mmHg 92%
    06:00 -13°C° 0 mm 3 m/S 747 mmHg 92%
    07:00 -13°C° 0 mm 3 m/S 747 mmHg 92%
    08:00 -13°C° 0 mm 3 m/S 747 mmHg 91%
    09:00 -13°C° 0 mm 3 m/S 747 mmHg 89%
    10:00 -12°C° 0 mm 4 m/S 747 mmHg 88%
    11:00 -12°C° 0 mm 3 m/S 747 mmHg 88%
    12:00 -10°C° 0 mm 3 m/S 747 mmHg 87%
    13:00 -10°C° 0 mm 3 m/S 747 mmHg 87%
    14:00 -10°C° 0 mm 3 m/S 747 mmHg 88%
    15:00 -12°C° 0 mm 3 m/S 747 mmHg 90%
    16:00 -12°C° 0 mm 2 m/S 747 mmHg 91%
    17:00 -12°C° 0 mm 2 m/S 747 mmHg 92%
    18:00 -12°C° 0 mm 2 m/S 748 mmHg 92%
    19:00 -12°C° 0 mm 2 m/S 748 mmHg 92%
    20:00 -13°C° 0 mm 2 m/S 748 mmHg 92%
    21:00 -11°C° 0 mm 1 m/S 748 mmHg 92%
    22:00 -11°C° 0 mm 1 m/S 748 mmHg 91%
    23:00 -11°C° 0 mm 1 m/S 748 mmHg 91%

    25 November, Montag

    Zeit Temperatur Niederschläge Wind Luftdruck Luftfeuchtigkeit
    00:00 -11°C° 0 mm 1 m/S 748 mmHg 90%
    01:00 -11°C° 0 mm 1 m/S 748 mmHg 89%
    02:00 -11°C° 0 mm 1 m/S 749 mmHg 89%
    03:00 -11°C° 0 mm 1 m/S 749 mmHg 89%
    04:00 -11°C° 0 mm 1 m/S 749 mmHg 88%
    05:00 -11°C° 0 mm 1 m/S 749 mmHg 89%
    06:00 -11°C° 0 mm 1 m/S 749 mmHg 89%
    07:00 -11°C° 0 mm 1 m/S 749 mmHg 90%
    08:00 -11°C° 0 mm 1 m/S 749 mmHg 90%
    09:00 -10°C° 0 mm 1 m/S 749 mmHg 90%
    10:00 -9°C° 0 mm 1 m/S 750 mmHg 90%
    11:00 -8°C° 0 mm 1 m/S 750 mmHg 90%
    12:00 -8°C° 0 mm 1 m/S 750 mmHg 89%
    13:00 -8°C° 0 mm 2 m/S 750 mmHg 89%
    14:00 -9°C° 0 mm 2 m/S 750 mmHg 90%
    15:00 -10°C° 0 mm 2 m/S 750 mmHg 92%
    16:00 -12°C° 0 mm 2 m/S 750 mmHg 93%
    17:00 -12°C° 0 mm 2 m/S 750 mmHg 93%
    18:00 -12°C° 0 mm 2 m/S 750 mmHg 93%
    19:00 -13°C° 0 mm 2 m/S 751 mmHg 93%
    20:00 -13°C° 0 mm 2 m/S 751 mmHg 93%
    21:00 -13°C° 0 mm 2 m/S 751 mmHg 93%
    22:00 -13°C° 0 mm 2 m/S 751 mmHg 93%
    23:00 -13°C° 0 mm 2 m/S 751 mmHg 93%
    Mehr zeigen